Milledgeville, GA

1:35 AM EDT on October 21, 2019 (GMT -0400)
Baldwin County

Weather History for KMLJ - September, 2019

Change the Weather History Date:

Thursday, September 19, 2019

  Actual Average (KOKZ) Record (KOKZ)
Temperature  
Mean Temperature 76 °F -  
Max Temperature 82 °F 84 °F 88 °F (2015)
Min Temperature 69 °F 63 °F 63 °F (2014)
Cooling Degree Days 10    
Growing Degree Days 26 (Base 50)    
Moisture  
Dew Point 55 °F    
Average Humidity 52    
Maximum Humidity 69    
Minimum Humidity 35    
Precipitation  
Precipitation 0.00 in - - ()
Sea Level Pressure  
Sea Level Pressure 30.18 in    
Wind  
Wind Speed 6 mph (East)    
Max Wind Speed 13 mph    
Max Gust Speed 17 mph    
Visibility 10 miles    
Events      
Averages and records for this station are not official NWS values.
T = Trace of Precipitation, MM = Missing Value Source: NWS Daily Summary

Daily Weather History Graph

Daily Weather History Graph

Search for Another Location

Airport or City:

Astronomy

Sep. 19, 2019 Rise Set
Actual Time 7:18 AM EDT 7:34 PM EDT
Civil Twilight 6:54 AM EDT 7:58 PM EDT
Nautical Twilight 6:25 AM EDT 8:27 PM EDT
Astronomical Twilight 5:55 AM EDT 8:56 PM EDT
Moon 10:58 PM EDT (9/19) 12:06 PM EDT (9/19)
Length of Visible Light 13h 04m
Length of Day
12h 15m
Waning Gibbous, 74% of the Moon is Illuminated
Sep 19
Waning Gibbous
Sep 21
Last Quarter
Sep 28
New
Oct 5
First Quarter
Oct 13
Full

Hourly Weather History & Observations

Time (EDT) Temp. Heat Index Dew Point Humidity Pressure Visibility Wind Dir Wind Speed Gust Speed Precip Events Conditions
12:15 AM 71.6 °F - 59.0 °F 64% 30.14 in 10.0 mi East 3.5 mph - N/A   Overcast
12:35 AM 71.6 °F - 59.0 °F 64% 30.14 in 10.0 mi East 3.5 mph - N/A   Overcast
12:55 AM 71.6 °F - 60.8 °F 69% 30.14 in 10.0 mi ESE 4.6 mph - N/A   Overcast
1:15 AM 71.6 °F - 60.8 °F 69% 30.13 in 10.0 mi ESE 3.5 mph - N/A   Overcast
1:35 AM 71.6 °F - 60.8 °F 69% 30.13 in 10.0 mi East 3.5 mph - N/A   Mostly Cloudy
1:55 AM 71.6 °F - 60.8 °F 69% 30.14 in 10.0 mi East 3.5 mph - N/A   Mostly Cloudy
2:15 AM 71.6 °F - 60.8 °F 69% 30.13 in 10.0 mi ESE 5.8 mph - N/A   Overcast
2:35 AM 71.6 °F - 60.8 °F 69% 30.13 in 10.0 mi ESE 5.8 mph - N/A   Overcast
2:55 AM 71.6 °F - 60.8 °F 69% 30.13 in 10.0 mi ESE 3.5 mph - N/A   Overcast
3:15 AM 71.6 °F - 60.8 °F 69% 30.13 in 10.0 mi East 5.8 mph - N/A   Overcast
3:35 AM 71.6 °F - 60.8 °F 69% 30.13 in 10.0 mi East 6.9 mph - N/A   Mostly Cloudy
3:55 AM 71.6 °F - 60.8 °F 69% 30.14 in 10.0 mi ESE 4.6 mph - N/A   Mostly Cloudy
4:15 AM 71.6 °F - 60.8 °F 69% 30.14 in 10.0 mi ESE 6.9 mph - N/A   Overcast
4:35 AM 71.6 °F - 60.8 °F 69% 30.14 in 10.0 mi East 5.8 mph - N/A   Overcast
4:55 AM 71.6 °F - 60.8 °F 69% 30.14 in 10.0 mi East 6.9 mph - N/A   Overcast
5:15 AM 71.6 °F - 60.8 °F 69% 30.14 in 10.0 mi East 5.8 mph - N/A   Overcast
5:35 AM 71.6 °F - 59.0 °F 64% 30.15 in 10.0 mi East 8.1 mph - N/A   Overcast
5:55 AM 71.6 °F - 59.0 °F 64% 30.16 in 10.0 mi ESE 8.1 mph - N/A   Overcast
6:15 AM 71.6 °F - 59.0 °F 64% 30.16 in 10.0 mi ESE 8.1 mph - N/A   Overcast
6:35 AM 71.6 °F - 59.0 °F 64% 30.17 in 10.0 mi ESE 5.8 mph - N/A   Overcast
6:55 AM 71.6 °F - 59.0 °F 64% 30.19 in 10.0 mi East 6.9 mph - N/A   Overcast
7:15 AM 71.6 °F - 57.2 °F 60% 30.19 in 10.0 mi East 6.9 mph - N/A   Overcast
7:35 AM 71.6 °F - 59.0 °F 64% 30.20 in 10.0 mi East 6.9 mph - N/A   Overcast
7:55 AM 71.6 °F - 57.2 °F 60% 30.20 in 10.0 mi ESE 9.2 mph - N/A   Overcast
8:15 AM 69.8 °F - 57.2 °F 64% 30.21 in 10.0 mi East 9.2 mph - N/A   Overcast
8:35 AM 69.8 °F - 55.4 °F 60% 30.20 in 10.0 mi ESE 9.2 mph - N/A   Overcast
8:55 AM 69.8 °F - 55.4 °F 60% 30.21 in 10.0 mi East 11.5 mph 17.3 mph N/A   Overcast
9:15 AM 69.8 °F - 55.4 °F 60% 30.22 in 10.0 mi ESE 8.1 mph - N/A   Overcast
9:35 AM 71.6 °F - 55.4 °F 57% 30.22 in 10.0 mi East 9.2 mph - N/A   Overcast
9:55 AM 71.6 °F - 55.4 °F 57% 30.22 in 10.0 mi East 8.1 mph - N/A   Overcast
10:15 AM 71.6 °F - 55.4 °F 57% 30.23 in 10.0 mi ESE 9.2 mph - N/A   Overcast
10:35 AM 71.6 °F - 55.4 °F 57% 30.24 in 10.0 mi East 5.8 mph - N/A   Overcast
10:55 AM 73.4 °F - 53.6 °F 50% 30.24 in 10.0 mi ESE 8.1 mph - N/A   Overcast
11:15 AM 75.2 °F - 53.6 °F 47% 30.24 in 10.0 mi East 6.9 mph - N/A   Mostly Cloudy
11:35 AM 77.0 °F - 51.8 °F 41% 30.24 in 10.0 mi ESE 9.2 mph 16.1 mph N/A   Scattered Clouds
11:55 AM 77.0 °F - 51.8 °F 41% 30.24 in 10.0 mi ESE 9.2 mph - N/A   Scattered Clouds
12:15 PM 78.8 °F - 53.6 °F 42% 30.23 in 10.0 mi ESE 10.4 mph - N/A   Scattered Clouds
12:35 PM 78.8 °F - 53.6 °F 42% 30.22 in 10.0 mi East 8.1 mph - N/A   Clear
12:55 PM 78.8 °F - 51.8 °F 39% 30.22 in 10.0 mi East 10.4 mph - N/A   Clear
1:15 PM 80.6 °F - 51.8 °F 37% 30.21 in 10.0 mi East 10.4 mph - N/A   Clear
1:35 PM 80.6 °F - 51.8 °F 37% 30.21 in 10.0 mi East 12.7 mph - N/A   Clear
1:55 PM 80.6 °F - 51.8 °F 37% 30.20 in 10.0 mi East 8.1 mph - N/A   Clear
2:15 PM 80.6 °F - 51.8 °F 37% 30.20 in 10.0 mi East 8.1 mph - N/A   Clear
2:35 PM 80.6 °F - 51.8 °F 37% 30.19 in 10.0 mi East 9.2 mph - N/A   Clear
2:55 PM 80.6 °F - 51.8 °F 37% 30.18 in 10.0 mi ESE 9.2 mph 16.1 mph N/A   Clear
3:15 PM 80.6 °F - 51.8 °F 37% 30.18 in 10.0 mi East 9.2 mph - N/A   Clear
3:35 PM 82.4 °F - 51.8 °F 35% 30.17 in 10.0 mi East 9.2 mph - N/A   Clear
3:55 PM 82.4 °F - 51.8 °F 35% 30.17 in 10.0 mi East 4.6 mph 17.3 mph N/A   Clear
4:15 PM 82.4 °F 81.4 °F 53.6 °F 37% 30.16 in 10.0 mi East 9.2 mph - N/A   Clear
4:35 PM 82.4 °F 81.4 °F 53.6 °F 37% 30.16 in 10.0 mi East 9.2 mph 17.3 mph N/A   Clear
4:55 PM 82.4 °F 81.4 °F 53.6 °F 37% 30.16 in 10.0 mi East 10.4 mph - N/A   Clear
5:15 PM 82.4 °F 81.4 °F 53.6 °F 37% 30.16 in 10.0 mi East 5.8 mph - N/A   Clear
5:35 PM 82.4 °F 81.4 °F 53.6 °F 37% 30.16 in 10.0 mi ENE 6.9 mph - N/A   Clear
5:55 PM 80.6 °F 80.3 °F 53.6 °F 39% 30.16 in 10.0 mi East 8.1 mph - N/A   Clear
6:15 PM 80.6 °F 80.3 °F 53.6 °F 39% 30.16 in 10.0 mi ENE 5.8 mph 10.4 mph N/A   Clear
6:35 PM 80.6 °F 80.3 °F 53.6 °F 39% 30.16 in 10.0 mi ENE 8.1 mph - N/A   Clear
6:55 PM 80.6 °F 80.3 °F 53.6 °F 39% 30.16 in 10.0 mi East 6.9 mph - N/A   Clear
7:15 PM 78.8 °F - 53.6 °F 42% 30.16 in 10.0 mi East 4.6 mph - N/A   Clear
7:35 PM 77.0 °F - 53.6 °F 44% 30.17 in 10.0 mi East 6.9 mph - N/A   Clear
7:55 PM 77.0 °F - 53.6 °F 44% 30.17 in 10.0 mi East 4.6 mph - N/A   Clear
8:15 PM 77.0 °F - 53.6 °F 44% 30.17 in 10.0 mi East 5.8 mph - N/A   Clear
8:35 PM 75.2 °F - 53.6 °F 47% 30.18 in 10.0 mi East 4.6 mph - N/A   Clear
8:55 PM 73.4 °F - 53.6 °F 50% 30.19 in 10.0 mi East 5.8 mph - N/A   Clear
9:15 PM 73.4 °F - 53.6 °F 50% 30.19 in 10.0 mi East 9.2 mph - N/A   Clear
9:35 PM 73.4 °F - 51.8 °F 47% 30.19 in 10.0 mi East 9.2 mph - N/A   Clear
9:55 PM 71.6 °F - 51.8 °F 50% 30.20 in 10.0 mi East 6.9 mph - N/A   Clear
10:15 PM 71.6 °F - 51.8 °F 50% 30.21 in 10.0 mi East 8.1 mph - N/A   Clear
10:35 PM 71.6 °F - 50.0 °F 46% 30.21 in 10.0 mi East 9.2 mph - N/A   Clear
10:55 PM 71.6 °F - 50.0 °F 46% 30.22 in 10.0 mi East 9.2 mph - N/A   Clear
11:15 PM 71.6 °F - 48.2 °F 43% 30.22 in 10.0 mi East 10.4 mph - N/A   Clear
11:35 PM 69.8 °F - 48.2 °F 46% 30.22 in 10.0 mi East 9.2 mph - N/A   Clear
11:55 PM 69.8 °F - 48.2 °F 46% 30.23 in 10.0 mi East 11.5 mph - N/A   Clear